Tracking 19795 objects as of 20-Jul-2019
HD Live streaming from Space Station
objects crossing your sky now

METEOR 2-17 DEB

Track METEOR 2-17 DEB now!
10-day predictions


NORAD ID: 29300
Int'l Code: 1988-005P
Perigee: 901.4 km
Apogee: 947.1 km
Inclination: 82.5 °
Period: 103.4 minutes
Semi major axis: 7295 km
RCS: 0.0063 m2 (small)
Launch date: January 30, 1988
Source: Commonwealth of Independent States (former USSR) (CIS)
Launch site: PLESETSK MISSILE AND SPACE COMPLEX (PKMTR)

Note: This is SATELLITE DEBRIS
aabbcc
Your satellite tracking list
Your tracking list is empty




NASA's NSSDC Master Catalog

Two Line Element Set (TLE):
1 29300U 88005P   19196.64020760  .00000379  00000-0  27786-3 0  9998
2 29300  82.5349 155.2084 0031351  26.2281 334.0464 13.93298596665945
Source of the keplerian elements: AFSPC